owner,sensor,date,latitude,longitude,vertical_datum,sea_water_temperature,qcFlag 
NERRS,ioos:station:NOAA.NERRS:gndblwq:1,2014-07-01T00:00:00Z,30.3571,-88.4629,0.0,32.0,2 
NERRS,ioos:station:NOAA.NERRS:gndblwq:1,2014-07-01T01:00:00Z,30.3571,-88.4629,0.0,31.7,2 
NERRS,ioos:station:NOAA.NERRS:gndblwq:1,2014-07-01T02:00:00Z,30.3571,-88.4629,0.0,31.3,2 
NERRS,ioos:station:NOAA.NERRS:gndblwq:1,2014-07-01T03:00:00Z,30.3571,-88.4629,0.0,31.1,2 
NERRS,ioos:station:NOAA.NERRS:gndblwq:1,2014-07-01T04:00:00Z,30.3571,-88.4629,0.0,30.8,2 
NERRS,ioos:station:NOAA.NERRS:gndblwq:1,2014-07-01T05:00:00Z,30.3571,-88.4629,0.0,30.6,2 
NERRS,ioos:station:NOAA.NERRS:gndblwq:1,2014-07-01T06:00:00Z,30.3571,-88.4629,0.0,30.5,2 
NERRS,ioos:station:NOAA.NERRS:gndblwq:1,2014-07-01T07:00:00Z,30.3571,-88.4629,0.0,30.7,2 
NERRS,ioos:station:NOAA.NERRS:gndblwq:1,2014-07-01T08:00:00Z,30.3571,-88.4629,0.0,31.1,2 
NERRS,ioos:station:NOAA.NERRS:gndblwq:1,2014-07-01T09:00:00Z,30.3571,-88.4629,0.0,30.3,2 
NERRS,ioos:station:NOAA.NERRS:gndblwq:1,2014-07-01T10:00:00Z,30.3571,-88.4629,0.0,29.4,2 
NERRS,ioos:station:NOAA.NERRS:gndblwq:1,2014-07-01T11:00:00Z,30.3571,-88.4629,0.0,29.9,2 
NERRS,ioos:station:NOAA.NERRS:gndblwq:1,2014-07-01T12:00:00Z,30.3571,-88.4629,0.0,30.3,2 
NERRS,ioos:station:NOAA.NERRS:gndblwq:1,2014-07-01T13:00:00Z,30.3571,-88.4629,0.0,29.5,2 
NERRS,ioos:station:NOAA.NERRS:gndblwq:1,2014-07-01T14:00:00Z,30.3571,-88.4629,0.0,30.1,2 
NERRS,ioos:station:NOAA.NERRS:gndblwq:1,2014-07-01T15:00:00Z,30.3571,-88.4629,0.0,30.8,2 
NERRS,ioos:station:NOAA.NERRS:gndblwq:1,2014-07-01T16:00:00Z,30.3571,-88.4629,0.0,31.4,2 
NERRS,ioos:station:NOAA.NERRS:gndblwq:1,2014-07-01T17:00:00Z,30.3571,-88.4629,0.0,31.6,2 
NERRS,ioos:station:NOAA.NERRS:gndblwq:1,2014-07-01T18:00:00Z,30.3571,-88.4629,0.0,31.6,2 
NERRS,ioos:station:NOAA.NERRS:gndblwq:1,2014-07-01T19:00:00Z,30.3571,-88.4629,0.0,32.3,2 
NERRS,ioos:station:NOAA.NERRS:gndblwq:1,2014-07-01T20:00:00Z,30.3571,-88.4629,0.0,33.1,2 
NERRS,ioos:station:NOAA.NERRS:gndblwq:1,2014-07-01T21:00:00Z,30.3571,-88.4629,0.0,33.0,2 
NERRS,ioos:station:NOAA.NERRS:gndblwq:1,2014-07-01T22:00:00Z,30.3571,-88.4629,0.0,33.2,2 
NERRS,ioos:station:NOAA.NERRS:gndblwq:1,2014-07-01T23:00:00Z,30.3571,-88.4629,0.0,33.1,2 
NERRS,ioos:station:NOAA.NERRS:gndblwq:1,2014-07-02T03:00:00Z,30.3571,-88.4629,0.0,31.1,2 
NERRS,ioos:station:NOAA.NERRS:gndblwq:1,2014-07-02T04:00:00Z,30.3571,-88.4629,0.0,31.2,2 
NERRS,ioos:station:NOAA.NERRS:gndblwq:1,2014-07-02T05:00:00Z,30.3571,-88.4629,0.0,31.0,2 
NERRS,ioos:station:NOAA.NERRS:gndblwq:1,2014-07-02T06:00:00Z,30.3571,-88.4629,0.0,31.1,2 
NERRS,ioos:station:NOAA.NERRS:gndblwq:1,2014-07-02T07:00:00Z,30.3571,-88.4629,0.0,30.6,2 
NERRS,ioos:station:NOAA.NERRS:gndblwq:1,2014-07-02T08:00:00Z,30.3571,-88.4629,0.0,30.4,2 
NERRS,ioos:station:NOAA.NERRS:gndblwq:1,2014-07-02T09:00:00Z,30.3571,-88.4629,0.0,30.7,2 
NERRS,ioos:station:NOAA.NERRS:gndblwq:1,2014-07-02T10:00:00Z,30.3571,-88.4629,0.0,30.6,2 
NERRS,ioos:station:NOAA.NERRS:gndblwq:1,2014-07-02T11:00:00Z,30.3571,-88.4629,0.0,30.8,2 
NERRS,ioos:station:NOAA.NERRS:gndblwq:1,2014-07-02T12:00:00Z,30.3571,-88.4629,0.0,30.2,2 
NERRS,ioos:station:NOAA.NERRS:gndblwq:1,2014-07-02T13:00:00Z,30.3571,-88.4629,0.0,30.5,2 
NERRS,ioos:station:NOAA.NERRS:gndblwq:1,2014-07-02T14:00:00Z,30.3571,-88.4629,0.0,30.1,2 
NERRS,ioos:station:NOAA.NERRS:gndblwq:1,2014-07-02T15:00:00Z,30.3571,-88.4629,0.0,31.2,2 
NERRS,ioos:station:NOAA.NERRS:gndblwq:1,2014-07-02T16:00:00Z,30.3571,-88.4629,0.0,31.7,2 
NERRS,ioos:station:NOAA.NERRS:gndblwq:1,2014-07-02T17:00:00Z,30.3571,-88.4629,0.0,31.7,2 
NERRS,ioos:station:NOAA.NERRS:gndblwq:1,2014-07-02T18:00:00Z,30.3571,-88.4629,0.0,32.0,2 
NERRS,ioos:station:NOAA.NERRS:gndblwq:1,2014-07-02T19:00:00Z,30.3571,-88.4629,0.0,32.3,2 
NERRS,ioos:station:NOAA.NERRS:gndblwq:1,2014-07-02T20:00:00Z,30.3571,-88.4629,0.0,32.3,2 
NERRS,ioos:station:NOAA.NERRS:gndblwq:1,2014-07-02T21:00:00Z,30.3571,-88.4629,0.0,33.1,2 
NERRS,ioos:station:NOAA.NERRS:gndblwq:1,2014-07-02T23:00:00Z,30.3571,-88.4629,0.0,32.9,2 
NERRS,ioos:station:NOAA.NERRS:gndblwq:1,2014-07-03T02:00:00Z,30.3571,-88.4629,0.0,32.0,2 
NERRS,ioos:station:NOAA.NERRS:gndblwq:1,2014-07-03T03:00:00Z,30.3571,-88.4629,0.0,31.7,2 
NERRS,ioos:station:NOAA.NERRS:gndblwq:1,2014-07-03T04:00:00Z,30.3571,-88.4629,0.0,31.3,2 
NERRS,ioos:station:NOAA.NERRS:gndblwq:1,2014-07-03T05:00:00Z,30.3571,-88.4629,0.0,30.5,2 
NERRS,ioos:station:NOAA.NERRS:gndblwq:1,2014-07-03T06:00:00Z,30.3571,-88.4629,0.0,30.2,2 
NERRS,ioos:station:NOAA.NERRS:gndblwq:1,2014-07-03T07:00:00Z,30.3571,-88.4629,0.0,29.4,2 
NERRS,ioos:station:NOAA.NERRS:gndblwq:1,2014-07-03T08:00:00Z,30.3571,-88.4629,0.0,29.4,2 
NERRS,ioos:station:NOAA.NERRS:gndblwq:1,2014-07-03T09:00:00Z,30.3571,-88.4629,0.0,30.1,2 
NERRS,ioos:station:NOAA.NERRS:gndblwq:1,2014-07-03T10:00:00Z,30.3571,-88.4629,0.0,28.2,2 
NERRS,ioos:station:NOAA.NERRS:gndblwq:1,2014-07-03T11:00:00Z,30.3571,-88.4629,0.0,30.3,2 
NERRS,ioos:station:NOAA.NERRS:gndblwq:1,2014-07-03T12:00:00Z,30.3571,-88.4629,0.0,30.3,2 
NERRS,ioos:station:NOAA.NERRS:gndblwq:1,2014-07-03T13:00:00Z,30.3571,-88.4629,0.0,29.3,2 
NERRS,ioos:station:NOAA.NERRS:gndblwq:1,2014-07-03T14:00:00Z,30.3571,-88.4629,0.0,29.1,2 
NERRS,ioos:station:NOAA.NERRS:gndblwq:1,2014-07-03T15:00:00Z,30.3571,-88.4629,0.0,29.5,2 
NERRS,ioos:station:NOAA.NERRS:gndblwq:1,2014-07-03T16:00:00Z,30.3571,-88.4629,0.0,30.0,2 
NERRS,ioos:station:NOAA.NERRS:gndblwq:1,2014-07-03T17:00:00Z,30.3571,-88.4629,0.0,30.8,2 
NERRS,ioos:station:NOAA.NERRS:gndblwq:1,2014-07-03T18:00:00Z,30.3571,-88.4629,0.0,31.2,2 
NERRS,ioos:station:NOAA.NERRS:gndblwq:1,2014-07-03T19:00:00Z,30.3571,-88.4629,0.0,31.5,2 
NERRS,ioos:station:NOAA.NERRS:gndblwq:1,2014-07-03T20:00:00Z,30.3571,-88.4629,0.0,31.9,2 
NERRS,ioos:station:NOAA.NERRS:gndblwq:1,2014-07-03T21:00:00Z,30.3571,-88.4629,0.0,31.7,2 
NERRS,ioos:station:NOAA.NERRS:gndblwq:1,2014-07-03T22:00:00Z,30.3571,-88.4629,0.0,32.0,2 
NERRS,ioos:station:NOAA.NERRS:gndblwq:1,2014-07-03T23:00:00Z,30.3571,-88.4629,0.0,31.7,2 
NERRS,ioos:station:NOAA.NERRS:gndblwq:1,2014-07-04T00:00:00Z,30.3571,-88.4629,0.0,31.6,2 
NERRS,ioos:station:NOAA.NERRS:gndblwq:1,2014-07-04T01:00:00Z,30.3571,-88.4629,0.0,31.2,2 
NERRS,ioos:station:NOAA.NERRS:gndblwq:1,2014-07-04T02:00:00Z,30.3571,-88.4629,0.0,30.6,2 
NERRS,ioos:station:NOAA.NERRS:gndblwq:1,2014-07-04T03:00:00Z,30.3571,-88.4629,0.0,30.3,2 
NERRS,ioos:station:NOAA.NERRS:gndblwq:1,2014-07-04T04:00:00Z,30.3571,-88.4629,0.0,30.1,2 
NERRS,ioos:station:NOAA.NERRS:gndblwq:1,2014-07-04T10:00:00Z,30.3571,-88.4629,0.0,29.1,2 
NERRS,ioos:station:NOAA.NERRS:gndblwq:1,2014-07-04T11:00:00Z,30.3571,-88.4629,0.0,28.4,2 
NERRS,ioos:station:NOAA.NERRS:gndblwq:1,2014-07-04T12:00:00Z,30.3571,-88.4629,0.0,28.8,2 
NERRS,ioos:station:NOAA.NERRS:gndblwq:1,2014-07-04T13:00:00Z,30.3571,-88.4629,0.0,28.4,2 
NERRS,ioos:station:NOAA.NERRS:gndblwq:1,2014-07-04T14:00:00Z,30.3571,-88.4629,0.0,29.2,2 
NERRS,ioos:station:NOAA.NERRS:gndblwq:1,2014-07-07T14:45:00Z,30.3571,-88.4629,0.0,28.5,2 
NERRS,ioos:station:NOAA.NERRS:gndblwq:1,2014-07-10T06:45:00Z,30.3571,-88.4629,0.0,29.4,2 
NERRS,ioos:station:NOAA.NERRS:gndblwq:1,2014-07-10T07:45:00Z,30.3571,-88.4629,0.0,29.0,2 
NERRS,ioos:station:NOAA.NERRS:gndblwq:1,2014-07-10T08:45:00Z,30.3571,-88.4629,0.0,28.9,2 
NERRS,ioos:station:NOAA.NERRS:gndblwq:1,2014-07-10T09:45:00Z,30.3571,-88.4629,0.0,28.8,2 
NERRS,ioos:station:NOAA.NERRS:gndblwq:1,2014-07-10T10:45:00Z,30.3571,-88.4629,0.0,28.6,2 
NERRS,ioos:station:NOAA.NERRS:gndblwq:1,2014-07-10T11:45:00Z,30.3571,-88.4629,0.0,28.4,2 
NERRS,ioos:station:NOAA.NERRS:gndblwq:1,2014-07-10T12:45:00Z,30.3571,-88.4629,0.0,28.2,2 
NERRS,ioos:station:NOAA.NERRS:gndblwq:1,2014-07-10T21:45:00Z,30.3571,-88.4629,0.0,29.7,2 
NERRS,ioos:station:NOAA.NERRS:gndblwq:1,2014-07-10T23:00:00Z,30.3571,-88.4629,0.0,30.4,2 
NERRS,ioos:station:NOAA.NERRS:gndblwq:1,2014-07-11T00:00:00Z,30.3571,-88.4629,0.0,30.5,2 
NERRS,ioos:station:NOAA.NERRS:gndblwq:1,2014-07-11T01:00:00Z,30.3571,-88.4629,0.0,30.2,2 
NERRS,ioos:station:NOAA.NERRS:gndblwq:1,2014-07-11T02:00:00Z,30.3571,-88.4629,0.0,29.8,2 
NERRS,ioos:station:NOAA.NERRS:gndblwq:1,2014-07-11T03:00:00Z,30.3571,-88.4629,0.0,29.4,2 
NERRS,ioos:station:NOAA.NERRS:gndblwq:1,2014-07-11T04:00:00Z,30.3571,-88.4629,0.0,29.3,2 
NERRS,ioos:station:NOAA.NERRS:gndblwq:1,2014-07-11T05:00:00Z,30.3571,-88.4629,0.0,29.5,2 
NERRS,ioos:station:NOAA.NERRS:gndblwq:1,2014-07-11T06:00:00Z,30.3571,-88.4629,0.0,29.1,2 
NERRS,ioos:station:NOAA.NERRS:gndblwq:1,2014-07-11T07:00:00Z,30.3571,-88.4629,0.0,29.1,2 
NERRS,ioos:station:NOAA.NERRS:gndblwq:1,2014-07-11T08:00:00Z,30.3571,-88.4629,0.0,29.4,2 
NERRS,ioos:station:NOAA.NERRS:gndblwq:1,2014-07-11T09:00:00Z,30.3571,-88.4629,0.0,29.3,2 
NERRS,ioos:station:NOAA.NERRS:gndblwq:1,2014-07-11T10:00:00Z,30.3571,-88.4629,0.0,29.2,2 
NERRS,ioos:station:NOAA.NERRS:gndblwq:1,2014-07-11T11:00:00Z,30.3571,-88.4629,0.0,29.0,2 
NERRS,ioos:station:NOAA.NERRS:gndblwq:1,2014-07-11T12:00:00Z,30.3571,-88.4629,0.0,28.7,2 
NERRS,ioos:station:NOAA.NERRS:gndblwq:1,2014-07-11T13:00:00Z,30.3571,-88.4629,0.0,28.5,2 
NERRS,ioos:station:NOAA.NERRS:gndblwq:1,2014-07-11T14:00:00Z,30.3571,-88.4629,0.0,28.6,2 
NERRS,ioos:station:NOAA.NERRS:gndblwq:1,2014-07-11T15:00:00Z,30.3571,-88.4629,0.0,28.9,2 
NERRS,ioos:station:NOAA.NERRS:gndblwq:1,2014-07-11T16:00:00Z,30.3571,-88.4629,0.0,29.4,2 
NERRS,ioos:station:NOAA.NERRS:gndblwq:1,2014-07-11T17:00:00Z,30.3571,-88.4629,0.0,30.7,2 
NERRS,ioos:station:NOAA.NERRS:gndblwq:1,2014-07-11T18:00:00Z,30.3571,-88.4629,0.0,29.9,2 
NERRS,ioos:station:NOAA.NERRS:gndblwq:1,2014-07-11T19:00:00Z,30.3571,-88.4629,0.0,30.9,2 
NERRS,ioos:station:NOAA.NERRS:gndblwq:1,2014-07-11T20:00:00Z,30.3571,-88.4629,0.0,30.6,2 
NERRS,ioos:station:NOAA.NERRS:gndblwq:1,2014-07-11T21:00:00Z,30.3571,-88.4629,0.0,30.1,2 
NERRS,ioos:station:NOAA.NERRS:gndblwq:1,2014-07-11T22:00:00Z,30.3571,-88.4629,0.0,29.5,2 
NERRS,ioos:station:NOAA.NERRS:gndblwq:1,2014-07-11T23:00:00Z,30.3571,-88.4629,0.0,29.0,2 
NERRS,ioos:station:NOAA.NERRS:gndblwq:1,2014-07-11T23:30:00Z,30.3571,-88.4629,0.0,28.2,2 
NERRS,ioos:station:NOAA.NERRS:gndblwq:1,2014-07-12T15:00:00Z,30.3571,-88.4629,0.0,28.0,2 
NERRS,ioos:station:NOAA.NERRS:gndblwq:1,2014-07-12T16:00:00Z,30.3571,-88.4629,0.0,28.4,2 
NERRS,ioos:station:NOAA.NERRS:gndblwq:1,2014-07-12T17:00:00Z,30.3571,-88.4629,0.0,28.5,2 
NERRS,ioos:station:NOAA.NERRS:gndblwq:1,2014-07-12T18:00:00Z,30.3571,-88.4629,0.0,29.2,2 
NERRS,ioos:station:NOAA.NERRS:gndblwq:1,2014-07-12T19:00:00Z,30.3571,-88.4629,0.0,30.1,2 
NERRS,ioos:station:NOAA.NERRS:gndblwq:1,2014-07-12T20:00:00Z,30.3571,-88.4629,0.0,30.8,2 
NERRS,ioos:station:NOAA.NERRS:gndblwq:1,2014-07-12T21:00:00Z,30.3571,-88.4629,0.0,31.2,2 
NERRS,ioos:station:NOAA.NERRS:gndblwq:1,2014-07-12T22:00:00Z,30.3571,-88.4629,0.0,31.8,2 
NERRS,ioos:station:NOAA.NERRS:gndblwq:1,2014-07-12T23:00:00Z,30.3571,-88.4629,0.0,32.0,2 
NERRS,ioos:station:NOAA.NERRS:gndblwq:1,2014-07-13T00:00:00Z,30.3571,-88.4629,0.0,31.7,2 
NERRS,ioos:station:NOAA.NERRS:gndblwq:1,2014-07-13T01:00:00Z,30.3571,-88.4629,0.0,31.0,2 
NERRS,ioos:station:NOAA.NERRS:gndblwq:1,2014-07-13T02:00:00Z,30.3571,-88.4629,0.0,30.9,2 
NERRS,ioos:station:NOAA.NERRS:gndblwq:1,2014-07-13T03:00:00Z,30.3571,-88.4629,0.0,30.4,2 
NERRS,ioos:station:NOAA.NERRS:gndblwq:1,2014-07-13T04:00:00Z,30.3571,-88.4629,0.0,30.4,2 
NERRS,ioos:station:NOAA.NERRS:gndblwq:1,2014-07-13T05:00:00Z,30.3571,-88.4629,0.0,30.4,2 
NERRS,ioos:station:NOAA.NERRS:gndblwq:1,2014-07-13T06:00:00Z,30.3571,-88.4629,0.0,30.1,2 
NERRS,ioos:station:NOAA.NERRS:gndblwq:1,2014-07-13T07:00:00Z,30.3571,-88.4629,0.0,29.6,2 
NERRS,ioos:station:NOAA.NERRS:gndblwq:1,2014-07-13T08:00:00Z,30.3571,-88.4629,0.0,30.4,2 
NERRS,ioos:station:NOAA.NERRS:gndblwq:1,2014-07-13T09:00:00Z,30.3571,-88.4629,0.0,30.6,2 
NERRS,ioos:station:NOAA.NERRS:gndblwq:1,2014-07-13T10:00:00Z,30.3571,-88.4629,0.0,30.3,2 
NERRS,ioos:station:NOAA.NERRS:gndblwq:1,2014-07-13T11:00:00Z,30.3571,-88.4629,0.0,30.0,2 
NERRS,ioos:station:NOAA.NERRS:gndblwq:1,2014-07-13T12:00:00Z,30.3571,-88.4629,0.0,30.0,2 
NERRS,ioos:station:NOAA.NERRS:gndblwq:1,2014-07-13T13:00:00Z,30.3571,-88.4629,0.0,29.8,2 
NERRS,ioos:station:NOAA.NERRS:gndblwq:1,2014-07-13T14:00:00Z,30.3571,-88.4629,0.0,29.5,2 
NERRS,ioos:station:NOAA.NERRS:gndblwq:1,2014-07-13T15:00:00Z,30.3571,-88.4629,0.0,29.5,2 
NERRS,ioos:station:NOAA.NERRS:gndblwq:1,2014-07-13T16:00:00Z,30.3571,-88.4629,0.0,29.7,2 
NERRS,ioos:station:NOAA.NERRS:gndblwq:1,2014-07-13T17:00:00Z,30.3571,-88.4629,0.0,29.8,2 
NERRS,ioos:station:NOAA.NERRS:gndblwq:1,2014-07-13T18:00:00Z,30.3571,-88.4629,0.0,30.9,2 
NERRS,ioos:station:NOAA.NERRS:gndblwq:1,2014-07-13T19:00:00Z,30.3571,-88.4629,0.0,31.4,2 
NERRS,ioos:station:NOAA.NERRS:gndblwq:1,2014-07-13T20:00:00Z,30.3571,-88.4629,0.0,32.0,2 
NERRS,ioos:station:NOAA.NERRS:gndblwq:1,2014-07-13T21:00:00Z,30.3571,-88.4629,0.0,32.0,2 
NERRS,ioos:station:NOAA.NERRS:gndblwq:1,2014-07-13T22:00:00Z,30.3571,-88.4629,0.0,32.0,2 
NERRS,ioos:station:NOAA.NERRS:gndblwq:1,2014-07-13T23:00:00Z,30.3571,-88.4629,0.0,32.0,2 
NERRS,ioos:station:NOAA.NERRS:gndblwq:1,2014-07-14T00:00:00Z,30.3571,-88.4629,0.0,31.8,2 
NERRS,ioos:station:NOAA.NERRS:gndblwq:1,2014-07-14T01:00:00Z,30.3571,-88.4629,0.0,31.6,2 
NERRS,ioos:station:NOAA.NERRS:gndblwq:1,2014-07-14T02:00:00Z,30.3571,-88.4629,0.0,31.2,2 
NERRS,ioos:station:NOAA.NERRS:gndblwq:1,2014-07-14T03:00:00Z,30.3571,-88.4629,0.0,30.9,2 
NERRS,ioos:station:NOAA.NERRS:gndblwq:1,2014-07-14T04:00:00Z,30.3571,-88.4629,0.0,30.6,2 
NERRS,ioos:station:NOAA.NERRS:gndblwq:1,2014-07-14T05:00:00Z,30.3571,-88.4629,0.0,30.1,2 
NERRS,ioos:station:NOAA.NERRS:gndblwq:1,2014-07-14T07:00:00Z,30.3571,-88.4629,0.0,30.6,2 
NERRS,ioos:station:NOAA.NERRS:gndblwq:1,2014-07-14T08:00:00Z,30.3571,-88.4629,0.0,30.1,2 
NERRS,ioos:station:NOAA.NERRS:gndblwq:1,2014-07-14T09:00:00Z,30.3571,-88.4629,0.0,29.8,2 
NERRS,ioos:station:NOAA.NERRS:gndblwq:1,2014-07-14T10:00:00Z,30.3571,-88.4629,0.0,29.7,2 
NERRS,ioos:station:NOAA.NERRS:gndblwq:1,2014-07-14T11:00:00Z,30.3571,-88.4629,0.0,30.5,2 
NERRS,ioos:station:NOAA.NERRS:gndblwq:1,2014-07-14T12:00:00Z,30.3571,-88.4629,0.0,28.9,2 
NERRS,ioos:station:NOAA.NERRS:gndblwq:1,2014-07-14T13:00:00Z,30.3571,-88.4629,0.0,30.2,2 
NERRS,ioos:station:NOAA.NERRS:gndblwq:1,2014-07-14T14:00:00Z,30.3571,-88.4629,0.0,30.4,2 
NERRS,ioos:station:NOAA.NERRS:gndblwq:1,2014-07-14T15:00:00Z,30.3571,-88.4629,0.0,30.6,2 
NERRS,ioos:station:NOAA.NERRS:gndblwq:1,2014-07-14T16:00:00Z,30.3571,-88.4629,0.0,30.3,2 
NERRS,ioos:station:NOAA.NERRS:gndblwq:1,2014-07-14T17:00:00Z,30.3571,-88.4629,0.0,30.6,2 
NERRS,ioos:station:NOAA.NERRS:gndblwq:1,2014-07-14T18:00:00Z,30.3571,-88.4629,0.0,30.8,2 
NERRS,ioos:station:NOAA.NERRS:gndblwq:1,2014-07-14T19:00:00Z,30.3571,-88.4629,0.0,31.2,2 
NERRS,ioos:station:NOAA.NERRS:gndblwq:1,2014-07-14T20:00:00Z,30.3571,-88.4629,0.0,31.7,2 
NERRS,ioos:station:NOAA.NERRS:gndblwq:1,2014-07-14T21:00:00Z,30.3571,-88.4629,0.0,32.1,2 
NERRS,ioos:station:NOAA.NERRS:gndblwq:1,2014-07-14T22:00:00Z,30.3571,-88.4629,0.0,32.3,2 
NERRS,ioos:station:NOAA.NERRS:gndblwq:1,2014-07-14T23:00:00Z,30.3571,-88.4629,0.0,32.3,2 
NERRS,ioos:station:NOAA.NERRS:gndblwq:1,2014-07-15T00:00:00Z,30.3571,-88.4629,0.0,31.9,2 
NERRS,ioos:station:NOAA.NERRS:gndblwq:1,2014-07-15T01:00:00Z,30.3571,-88.4629,0.0,31.2,2 
NERRS,ioos:station:NOAA.NERRS:gndblwq:1,2014-07-15T02:00:00Z,30.3571,-88.4629,0.0,30.7,2 
NERRS,ioos:station:NOAA.NERRS:gndblwq:1,2014-07-15T03:00:00Z,30.3571,-88.4629,0.0,30.5,2 
NERRS,ioos:station:NOAA.NERRS:gndblwq:1,2014-07-15T04:00:00Z,30.3571,-88.4629,0.0,30.2,2 
NERRS,ioos:station:NOAA.NERRS:gndblwq:1,2014-07-15T05:00:00Z,30.3571,-88.4629,0.0,29.9,2 
NERRS,ioos:station:NOAA.NERRS:gndblwq:1,2014-07-15T06:00:00Z,30.3571,-88.4629,0.0,29.6,2 
NERRS,ioos:station:NOAA.NERRS:gndblwq:1,2014-07-15T07:00:00Z,30.3571,-88.4629,0.0,29.8,2 
NERRS,ioos:station:NOAA.NERRS:gndblwq:1,2014-07-15T08:00:00Z,30.3571,-88.4629,0.0,29.4,2 
NERRS,ioos:station:NOAA.NERRS:gndblwq:1,2014-07-15T09:00:00Z,30.3571,-88.4629,0.0,29.8,2 
NERRS,ioos:station:NOAA.NERRS:gndblwq:1,2014-07-15T10:00:00Z,30.3571,-88.4629,0.0,29.3,2 
NERRS,ioos:station:NOAA.NERRS:gndblwq:1,2014-07-15T11:00:00Z,30.3571,-88.4629,0.0,30.0,2 
NERRS,ioos:station:NOAA.NERRS:gndblwq:1,2014-07-15T12:00:00Z,30.3571,-88.4629,0.0,29.0,2 
NERRS,ioos:station:NOAA.NERRS:gndblwq:1,2014-07-15T13:00:00Z,30.3571,-88.4629,0.0,27.8,2 
NERRS,ioos:station:NOAA.NERRS:gndblwq:1,2014-07-15T14:00:00Z,30.3571,-88.4629,0.0,28.7,2 
NERRS,ioos:station:NOAA.NERRS:gndblwq:1,2014-07-15T15:00:00Z,30.3571,-88.4629,0.0,29.2,2 
NERRS,ioos:station:NOAA.NERRS:gndblwq:1,2014-07-15T16:00:00Z,30.3571,-88.4629,0.0,30.2,2 
NERRS,ioos:station:NOAA.NERRS:gndblwq:1,2014-07-15T17:00:00Z,30.3571,-88.4629,0.0,30.5,2 
NERRS,ioos:station:NOAA.NERRS:gndblwq:1,2014-07-15T18:00:00Z,30.3571,-88.4629,0.0,30.8,2 
NERRS,ioos:station:NOAA.NERRS:gndblwq:1,2014-07-15T19:00:00Z,30.3571,-88.4629,0.0,30.6,2 
NERRS,ioos:station:NOAA.NERRS:gndblwq:1,2014-07-15T20:00:00Z,30.3571,-88.4629,0.0,30.2,2 
NERRS,ioos:station:NOAA.NERRS:gndblwq:1,2014-07-15T21:00:00Z,30.3571,-88.4629,0.0,30.4,2 
NERRS,ioos:station:NOAA.NERRS:gndblwq:1,2014-07-15T22:00:00Z,30.3571,-88.4629,0.0,30.1,2 
NERRS,ioos:station:NOAA.NERRS:gndblwq:1,2014-07-15T23:00:00Z,30.3571,-88.4629,0.0,29.7,2 
NERRS,ioos:station:NOAA.NERRS:gndblwq:1,2014-07-16T00:00:00Z,30.3571,-88.4629,0.0,29.7,2 
NERRS,ioos:station:NOAA.NERRS:gndblwq:1,2014-07-16T01:00:00Z,30.3571,-88.4629,0.0,29.6,2 
NERRS,ioos:station:NOAA.NERRS:gndblwq:1,2014-07-16T02:00:00Z,30.3571,-88.4629,0.0,29.3,2 
NERRS,ioos:station:NOAA.NERRS:gndblwq:1,2014-07-16T03:00:00Z,30.3571,-88.4629,0.0,29.6,2 
NERRS,ioos:station:NOAA.NERRS:gndblwq:1,2014-07-16T04:00:00Z,30.3571,-88.4629,0.0,29.1,2 
NERRS,ioos:station:NOAA.NERRS:gndblwq:1,2014-07-16T05:00:00Z,30.3571,-88.4629,0.0,29.2,2 
NERRS,ioos:station:NOAA.NERRS:gndblwq:1,2014-07-16T06:00:00Z,30.3571,-88.4629,0.0,29.0,2 
NERRS,ioos:station:NOAA.NERRS:gndblwq:1,2014-07-16T07:00:00Z,30.3571,-88.4629,0.0,28.4,2 
NERRS,ioos:station:NOAA.NERRS:gndblwq:1,2014-07-16T08:00:00Z,30.3571,-88.4629,0.0,28.9,2 
NERRS,ioos:station:NOAA.NERRS:gndblwq:1,2014-07-16T09:00:00Z,30.3571,-88.4629,0.0,28.0,2 
NERRS,ioos:station:NOAA.NERRS:gndblwq:1,2014-07-16T10:00:00Z,30.3571,-88.4629,0.0,27.6,2 
NERRS,ioos:station:NOAA.NERRS:gndblwq:1,2014-07-16T11:00:00Z,30.3571,-88.4629,0.0,28.5,2 
NERRS,ioos:station:NOAA.NERRS:gndblwq:1,2014-07-16T12:00:00Z,30.3571,-88.4629,0.0,28.4,2 
NERRS,ioos:station:NOAA.NERRS:gndblwq:1,2014-07-16T13:00:00Z,30.3571,-88.4629,0.0,28.5,2 
NERRS,ioos:station:NOAA.NERRS:gndblwq:1,2014-07-16T14:00:00Z,30.3571,-88.4629,0.0,28.9,2 
NERRS,ioos:station:NOAA.NERRS:gndblwq:1,2014-07-16T15:00:00Z,30.3571,-88.4629,0.0,29.2,2 
NERRS,ioos:station:NOAA.NERRS:gndblwq:1,2014-07-16T16:00:00Z,30.3571,-88.4629,0.0,29.5,2 
NERRS,ioos:station:NOAA.NERRS:gndblwq:1,2014-07-16T17:00:00Z,30.3571,-88.4629,0.0,29.8,2 
NERRS,ioos:station:NOAA.NERRS:gndblwq:1,2014-07-16T18:00:00Z,30.3571,-88.4629,0.0,30.2,2 
NERRS,ioos:station:NOAA.NERRS:gndblwq:1,2014-07-16T19:00:00Z,30.3571,-88.4629,0.0,31.5,2 
NERRS,ioos:station:NOAA.NERRS:gndblwq:1,2014-07-16T20:00:00Z,30.3571,-88.4629,0.0,31.1,2 
NERRS,ioos:station:NOAA.NERRS:gndblwq:1,2014-07-16T21:00:00Z,30.3571,-88.4629,0.0,31.0,2 
NERRS,ioos:station:NOAA.NERRS:gndblwq:1,2014-07-16T22:00:00Z,30.3571,-88.4629,0.0,31.8,2 
NERRS,ioos:station:NOAA.NERRS:gndblwq:1,2014-07-16T23:00:00Z,30.3571,-88.4629,0.0,30.8,2 
NERRS,ioos:station:NOAA.NERRS:gndblwq:1,2014-07-17T00:00:00Z,30.3571,-88.4629,0.0,30.6,2 
NERRS,ioos:station:NOAA.NERRS:gndblwq:1,2014-07-17T01:00:00Z,30.3571,-88.4629,0.0,30.2,2 
NERRS,ioos:station:NOAA.NERRS:gndblwq:1,2014-07-17T02:00:00Z,30.3571,-88.4629,0.0,30.2,2 
NERRS,ioos:station:NOAA.NERRS:gndblwq:1,2014-07-17T03:00:00Z,30.3571,-88.4629,0.0,29.6,2 
NERRS,ioos:station:NOAA.NERRS:gndblwq:1,2014-07-17T04:00:00Z,30.3571,-88.4629,0.0,29.3,2 
NERRS,ioos:station:NOAA.NERRS:gndblwq:1,2014-07-17T05:00:00Z,30.3571,-88.4629,0.0,29.0,2 
NERRS,ioos:station:NOAA.NERRS:gndblwq:1,2014-07-17T06:00:00Z,30.3571,-88.4629,0.0,28.6,2 
NERRS,ioos:station:NOAA.NERRS:gndblwq:1,2014-07-17T07:00:00Z,30.3571,-88.4629,0.0,28.0,2 
NERRS,ioos:station:NOAA.NERRS:gndblwq:1,2014-07-17T08:00:00Z,30.3571,-88.4629,0.0,28.4,2 
NERRS,ioos:station:NOAA.NERRS:gndblwq:1,2014-07-17T09:00:00Z,30.3571,-88.4629,0.0,28.3,2 
NERRS,ioos:station:NOAA.NERRS:gndblwq:1,2014-07-17T10:00:00Z,30.3571,-88.4629,0.0,28.2,2 
NERRS,ioos:station:NOAA.NERRS:gndblwq:1,2014-07-17T11:00:00Z,30.3571,-88.4629,0.0,28.4,2 
NERRS,ioos:station:NOAA.NERRS:gndblwq:1,2014-07-17T12:00:00Z,30.3571,-88.4629,0.0,27.2,2 
NERRS,ioos:station:NOAA.NERRS:gndblwq:1,2014-07-17T13:00:00Z,30.3571,-88.4629,0.0,27.4,2 
NERRS,ioos:station:NOAA.NERRS:gndblwq:1,2014-07-17T14:00:00Z,30.3571,-88.4629,0.0,27.5,2 
NERRS,ioos:station:NOAA.NERRS:gndblwq:1,2014-07-17T15:00:00Z,30.3571,-88.4629,0.0,27.5,2 
NERRS,ioos:station:NOAA.NERRS:gndblwq:1,2014-07-17T16:00:00Z,30.3571,-88.4629,0.0,28.2,2 
NERRS,ioos:station:NOAA.NERRS:gndblwq:1,2014-07-17T17:00:00Z,30.3571,-88.4629,0.0,28.6,2 
NERRS,ioos:station:NOAA.NERRS:gndblwq:1,2014-07-17T18:00:00Z,30.3571,-88.4629,0.0,29.0,2 
NERRS,ioos:station:NOAA.NERRS:gndblwq:1,2014-07-17T19:00:00Z,30.3571,-88.4629,0.0,29.8,2 
NERRS,ioos:station:NOAA.NERRS:gndblwq:1,2014-07-17T20:00:00Z,30.3571,-88.4629,0.0,29.7,2 
NERRS,ioos:station:NOAA.NERRS:gndblwq:1,2014-07-17T21:00:00Z,30.3571,-88.4629,0.0,30.0,2 
NERRS,ioos:station:NOAA.NERRS:gndblwq:1,2014-07-17T22:00:00Z,30.3571,-88.4629,0.0,30.1,2 
NERRS,ioos:station:NOAA.NERRS:gndblwq:1,2014-07-17T23:00:00Z,30.3571,-88.4629,0.0,30.1,2 
NERRS,ioos:station:NOAA.NERRS:gndblwq:1,2014-07-18T00:00:00Z,30.3571,-88.4629,0.0,29.9,2 
NERRS,ioos:station:NOAA.NERRS:gndblwq:1,2014-07-18T01:00:00Z,30.3571,-88.4629,0.0,29.7,2 
NERRS,ioos:station:NOAA.NERRS:gndblwq:1,2014-07-18T02:00:00Z,30.3571,-88.4629,0.0,29.2,2 
NERRS,ioos:station:NOAA.NERRS:gndblwq:1,2014-07-18T03:00:00Z,30.3571,-88.4629,0.0,29.0,2 
NERRS,ioos:station:NOAA.NERRS:gndblwq:1,2014-07-18T04:00:00Z,30.3571,-88.4629,0.0,29.1,2 
NERRS,ioos:station:NOAA.NERRS:gndblwq:1,2014-07-18T05:00:00Z,30.3571,-88.4629,0.0,29.2,2 
NERRS,ioos:station:NOAA.NERRS:gndblwq:1,2014-07-18T06:00:00Z,30.3571,-88.4629,0.0,29.3,2 
NERRS,ioos:station:NOAA.NERRS:gndblwq:1,2014-07-18T07:00:00Z,30.3571,-88.4629,0.0,29.1,2 
NERRS,ioos:station:NOAA.NERRS:gndblwq:1,2014-07-18T08:00:00Z,30.3571,-88.4629,0.0,28.7,2 
NERRS,ioos:station:NOAA.NERRS:gndblwq:1,2014-07-18T09:00:00Z,30.3571,-88.4629,0.0,28.4,2 
NERRS,ioos:station:NOAA.NERRS:gndblwq:1,2014-07-18T10:00:00Z,30.3571,-88.4629,0.0,28.2,2 
NERRS,ioos:station:NOAA.NERRS:gndblwq:1,2014-07-18T11:00:00Z,30.3571,-88.4629,0.0,29.0,2 
NERRS,ioos:station:NOAA.NERRS:gndblwq:1,2014-07-18T12:00:00Z,30.3571,-88.4629,0.0,28.3,2 
NERRS,ioos:station:NOAA.NERRS:gndblwq:1,2014-07-18T13:00:00Z,30.3571,-88.4629,0.0,28.6,2 
NERRS,ioos:station:NOAA.NERRS:gndblwq:1,2014-07-18T14:00:00Z,30.3571,-88.4629,0.0,28.5,2 
NERRS,ioos:station:NOAA.NERRS:gndblwq:1,2014-07-18T15:00:00Z,30.3571,-88.4629,0.0,28.5,2 
NERRS,ioos:station:NOAA.NERRS:gndblwq:1,2014-07-18T16:00:00Z,30.3571,-88.4629,0.0,28.2,2 
NERRS,ioos:station:NOAA.NERRS:gndblwq:1,2014-07-18T17:00:00Z,30.3571,-88.4629,0.0,28.2,2 
NERRS,ioos:station:NOAA.NERRS:gndblwq:1,2014-07-18T18:00:00Z,30.3571,-88.4629,0.0,28.5,2 
NERRS,ioos:station:NOAA.NERRS:gndblwq:1,2014-07-18T19:00:00Z,30.3571,-88.4629,0.0,28.4,2 
NERRS,ioos:station:NOAA.NERRS:gndblwq:1,2014-07-18T20:00:00Z,30.3571,-88.4629,0.0,28.5,2 
NERRS,ioos:station:NOAA.NERRS:gndblwq:1,2014-07-18T21:00:00Z,30.3571,-88.4629,0.0,27.8,2 
NERRS,ioos:station:NOAA.NERRS:gndblwq:1,2014-07-18T22:00:00Z,30.3571,-88.4629,0.0,27.8,2 
NERRS,ioos:station:NOAA.NERRS:gndblwq:1,2014-07-18T23:00:00Z,30.3571,-88.4629,0.0,27.6,2 
NERRS,ioos:station:NOAA.NERRS:gndblwq:1,2014-07-19T00:00:00Z,30.3571,-88.4629,0.0,27.5,2 
NERRS,ioos:station:NOAA.NERRS:gndblwq:1,2014-07-19T01:00:00Z,30.3571,-88.4629,0.0,27.5,2 